COSMOS 1275 DEB, 42228

Orbit data source: Space-Track

COSMOS 1275 DEB, 42228 is space debris in LEO originally from a launch on Thu, 04 Jun 1981 UTC launched from the Plesetsk Missile And Space Complex (PKMTR). Debris objects in space refer to the collection of defunct objects orbiting the Earth. Examples of debris include non-operational satellites, rocket bodies, and fragments generated from explosions, collisions, or faulty payload assembly.

Loading next visibility...
Identifier
42228, 1981-053UU
Orbit
LEO
Last TLE update
2 days ago
Origin
Manufacturer
Unknown
Mission
Spacecraft
Bus & Motor
Unknown
Mass
Unknown
Launch date (UTC)
1981-06-04 (44 years ago)
Launch vehicle
Unknown
Launch site
Plesetsk Missile And Space Complex (PKMTR)
Object type
Payload
Rocket body
Debris
Shape & HBR
Unknown
Radar Cross Section
Small (<0.1 m²)

Expand to show TLE details & history

TLE from 2 days ago
0 COSMOS 1275 DEB
1 42228U 81053UU  25185.02547357  .00000337  00000-0  29649-3 0  9995
2 42228  82.9331  84.8487 0038891 273.7355  85.9359 13.82358576 33638
Epoch: 2025-07-04T00:36Z
TLE epoch observation values (Epoch: 2025-07-04T00:36:40.916Z)
Latitude
0.00003°
Longitude
153.39443°
Altitude
956.531 km
Speed
7.374 km/s
True Right ascension
05h 39m 23s
True Declination
0° 00' 00"
Sunlit
Object was in daylight at epoch
Visualization orbit readout
Latitude
-38.29941°
Longitude
-22.46278°
Altitude
951.658 km
Speed
7.384 km/s
Apparent Right ascension
20h 07m 34s
Apparent Declination
-44° 57' 27"
Sunlit
Object is in full shadow
Visualization observer readout
Local Sidereal Time
10:46:18
Azimuth
113.075° SE
Elevation
-60.583°
Doppler factor
1
Orbital elements
Apogee altitude
981.182 km
Perigee altitude
924.162 km
Semi-major axis
7,330.809 km
Eccentricity
0.00389
Inclination
82.9331°
RAAN
84.8487°
Arg. of periapsis
273.7355°
True anomaly
Unknown
Mean anomaly
85.9359°
Eccentric anomaly
Unknown
Mean motion
3.45792 °/min
Orbital period
104.11 mins
BSTAR
0.00029649
Loading maneuver chart data...
Loading SW <> Apogee altitude chart data...
Loading historical data...
Loading historical data...
Loading historical data...
Loading historical data...
Loading historical data...
Loading historical data...
Loading historical data...

COSMOS 1275 DEB Visibility forecast

Observer location: undefined°, undefined°

Span
Click to sort rows by Start time (UTC) header in descending order
Start Az.
Max El. time (UTC)
Max El. Az.
Max El.
End time (UTC)
End Az.
7 mins2025-07-06 03:35:03.293Z31.043° NE2025-07-06 03:39:03.293Z72.234° E15.961°2025-07-06 03:42:03.293Z102.785° ESE
10 mins2025-07-06 05:20:03.293Z346.007° N2025-07-06 05:24:03.293Z282.207° WNW43.52°2025-07-06 05:30:03.293Z183.373° SSW
9 mins2025-07-06 17:01:03.293Z140.092° SSE2025-07-06 17:05:03.293Z81.124° E29.62°2025-07-06 17:10:03.293Z25.904° NE
9 mins2025-07-06 18:46:03.293Z234.019° WSW2025-07-06 18:50:03.293Z293.735° NW28.809°2025-07-06 18:55:03.293Z348.197° N
|